This is the latest recevied weather packets stored in our database for station/object VR2OT-10. If no packets are shown the sender has not sent any weather packets the latest 10 day(s).
| Time | Temp. | Humidity | Pressure | Rain* | Wind** | Luminosity | Snow |
|---|---|---|---|---|---|---|---|
| 1788054932 | 28.33° C | 83% | 999.8 hPa | - | 4.47 m/s, 90° | - | - |
| 1788054031 | 28.33° C | 83% | 1000 hPa | - | 4.92 m/s, 90° | - | - |
| 1788053133 | 27.78° C | 84% | 1000 hPa | - | 4.02 m/s, 90° | - | - |
| 1788052234 | 27.78° C | 83% | 999.9 hPa | - | 3.13 m/s, 90° | - | - |
| 1788050434 | 27.78° C | 85% | 999.7 hPa | - | 2.68 m/s, 90° | - | - |
| 1788048632 | 27.78° C | 86% | 999.3 hPa | - | 2.24 m/s, 135° | - | - |
| 1788047733 | 27.78° C | 86% | 999.2 hPa | - | 1.34 m/s, 135° | - | - |
| 1788046833 | 27.78° C | 86% | 999 hPa | - | 0.45 m/s, 135° | - | - |
| 1788045932 | 27.78° C | 86% | 999 hPa | - | 2.24 m/s, 135° | - | - |
| 1788045034 | 27.22° C | 87% | 998.9 hPa | - | 3.13 m/s, 90° | - | - |
| 1788044133 | 27.22° C | 90% | 998.7 hPa | - | 1.79 m/s, 135° | - | - |
| 1788043231 | 27.22° C | 91% | 998.6 hPa | - | 1.34 m/s, 135° | - | - |
| 1788041434 | 27.22° C | 91% | 998.3 hPa | - | 1.34 m/s, 135° | - | - |
| 1788039634 | 27.22° C | 91% | 998.2 hPa | - | 1.79 m/s, 135° | - | - |
| 1788038733 | 27.22° C | 89% | 998 hPa | - | 1.34 m/s, 135° | - | - |
| 1788037832 | 27.22° C | 89% | 998 hPa | - | 1.79 m/s, 135° | - | - |
| 1788036933 | 27.22° C | 90% | 997.9 hPa | - | 1.79 m/s, 135° | - | - |
| 1788036033 | 27.78° C | 89% | 998 hPa | - | 1.34 m/s, 135° | - | - |
| 1788035132 | 27.78° C | 89% | 998.1 hPa | - | - | - | - |
| 1788034234 | 27.78° C | 89% | 998.1 hPa | - | 0 m/s | - | - |
| 1788033333 | 27.22° C | 89% | 998.1 hPa | - | 0.45 m/s, 180° | - | - |
| 1788032431 | 27.78° C | 88% | 998.2 hPa | - | 0 m/s | - | - |
| 1788031533 | 27.78° C | 88% | 998.2 hPa | - | 0 m/s | - | - |
| 1788030634 | 28.33° C | 87% | 998.2 hPa | - | 0.45 m/s, 225° | - | - |
| 1788029732 | 28.33° C | 87% | 998.5 hPa | - | 0 m/s | - | - |
* Rain since midnight (hover to see other rain measurements)
** Current wind speed in m/s (hover to see current wind gust speed)